Dauntless Aviation
Airports Europe Switzerland
LSTA

Raron Airport

Raron, SWITZERLAND

Airport Info
Suggest Updated Information for this Airport

Location

Latitude / Longitude: 46°18'12"N / 7°49'23"E
  46°18.216'N / 7°49.398'E
  46.3036 / 7.8233
Satellite photo at:
Airport distance calculator
From:
Weather Reports

METAR

LSGS
21.7nm SW
LSGS 211720Z 26009KT 230V290 9999 -RA BKN080 24/12 Q1016
LSMS
21.7nm SW
LSMS 211720Z 26009KT 230V290 9999 -RA BKN080 24/12 Q1016 RMK BLU
LSMM
29.4nm N
LSMM 211720Z AUTO VRB02KT 9999NDV OVC088 19/15 Q1016 RMK
LSZB
39.2nm NW
LSZB 211720Z 27008KT 230V300 9999 BKN050 SCT070 21/12 Q1017 NOSIG
LIMW
39.2nm S
LIMW 211720Z AUTO 30007KT 250V350 9999 OVC095/// 23/15 Q1017

TAF

LSGS
21.7nm SW
TAF LSGS 211425Z 2115/2124 25008KT 9999 SCT080 BKN130 PROB30 TEMPO 2115/2121 SHRA
LSZB
39.2nm NW
TAF LSZB 211425Z 2115/2124 28010KT 9999 FEW040 SCT050 BKN070 TEMPO 2115/2121 28015G26KT SHRA
LIMW
39.2nm S
TAF LIMW 211400Z 2115/2124 11014KT 9999 SCT090 BECMG 2118/2120 VRB05KT
Safelog

 

Dauntless Aviation

© 2007-2018 Dauntless Aviation, all rights reserved
Information provided via PilotNav comes from a variety of official and unofficial data sources. As errors are possible, do not use PilotNav for primary flight planning purposes. Verify any information that you receive via PilotNav with current and canonical charts and other official documents. The material in this database is subject to database copyrights held by Dauntless Aviation and may not be copied without the express permission of Dauntless Aviation - licenses for use of part of all of this data are available for purchase; enquire via the Dauntless Aviation helpdesk. A number of mechanisms and markers exist in the database to protect against and identify infringement / copyright. Automated queries against this website are stictly prohibited, and all activity is logged and analyzed.